User: anonymous   Login
Location: Bothwell
(42.3833°S, 147.0000°E)
Time: 14:34:59
(UTC+11:00)
Language:

KKS-1 - Orbit

View from above orbital plane
View from above orbital plane
View from above satellite
View from above satellite

Ground track
Ground track

The orbit data is extracted from the following two-line orbital elements,

1 33499U 09002H   23333.78957833  .00003472  00000-0  49106-3 0  9992
2 33499  98.1542 228.0978 0009980  59.8800 300.3398 14.77745153798948
Epoch (UTC): 29 November 2023 18:56:59
Eccentricity: 0.0009980
inclination: 98.1542°
perigee height: 629 km
apogee height: 643 km
right ascension of ascending node: 228.0978°
argument of perigee: 59.8800°
revolutions per day: 14.77745153
mean anomaly at epoch: 300.3398°
orbit number at epoch: 79894

The dashed part of the orbit path shows where the satellite is in the earth's shadow,  

DLR